Location: Copeville
(33.0796°N, 96.4155°W)
Time: 18:50:51
(UTC+00:00)

NOAA 19 - Pass Details

Date: 10 April 2023
Orbit: 840 x 859 km, 99.1° (Epoch: 31 May)

Event Time Altitude Azimuth Distance (km) Brightness Sun altitude
Exits shadow 02:59:17 19° 198° (SSW) 1,899 6.9 -25.9°
Maximum altitude 03:02:50 42° 260° (W) 1,181 6.2 -26.6°
Drops below altitude 10° 03:07:59 10° 331° (NNW) 2,463 8.4 -27.5°
Sets 03:10:29 0° 338° (NNW) 3,400 9.1 -27.9°
